Simultaneous Nadir Overpasses (SNOs) Predictions

Prediction of SNOs between AQUA and NPP Satellite Orbit:

Table of predicted SNOs for the next 14.0 days since TLE Epoch: 1/6/2017
Index Date (AQUA) Time (AQUA) Lat,Lon (AQUA) SZA (AQUA ) Date (NPP) Time (NPP) Lat,Lon (NPP) SZA (NPP ) Distance(km) Time Diff (sec)
1 01/08/2017 13:15:42 -75.12, 37.64 59.86 01/08/2017 13:14:42 -75.12, 37.63 59.80 0.40 60
2 01/08/2017 14:04:44 76.29,-151.27 118.86 01/08/2017 14:05:01 76.29,-151.28 118.85 0.20 17
3 01/11/2017 05:32:04 -75.46, 154.47 60.56 01/11/2017 05:31:29 -75.45, 154.41 60.51 1.64 35
4 01/11/2017 06:21:07 76.57, -34.45 118.21 01/11/2017 06:21:49 76.56, -34.50 118.19 1.11 42
5 01/13/2017 21:48:26 -75.79, -88.68 61.30 01/13/2017 21:48:16 -75.78, -88.77 61.27 2.37 10
6 01/13/2017 22:37:30 76.84, 82.38 117.52 01/13/2017 22:38:37 76.83, 82.32 117.48 1.59 67
7 01/16/2017 13:15:42 75.00,-142.65 119.14 01/16/2017 13:14:40 75.00,-142.71 119.22 2.00 62
8 01/16/2017 14:04:46 -76.16, 28.34 62.15 01/16/2017 14:05:01 -76.15, 28.25 62.14 2.57 15
9 01/19/2017 05:32:01 75.48, -25.47 118.14 01/19/2017 05:31:24 75.47, -25.53 118.20 2.01 37




NCC Satellite Simultaneous Nadir Overpasses (SNOs) Prediction Service
